| time (UTC) | temp F | wind direction | speed MPH | gust MPH | rain 1hr in | rain 24hr in | rain mn in | humidity % | barometer mb |
| 20260504013418 | 83 | 299 | 1.0 | 2.0 | 0.00 | 0.00 | 0.00 | 13 | 1006.0 |
| 20260504012419 | 84 | 271 | 1.0 | 2.0 | 0.00 | 0.00 | 0.00 | 15 | 1006.1 |
| 20260504011419 | 84 | 291 | 2.0 | 3.0 | 0.00 | 0.00 | 0.00 | 13 | 1006.2 |
| 20260504010419 | 84 | 279 | 2.0 | 2.0 | 0.00 | 0.00 | 0.00 | 15 | 1006.4 |
| 20260504005419 | 84 | 262 | 1.0 | 2.0 | 0.00 | 0.00 | 0.00 | 15 | 1006.6 |
| 20260504004439 | 84 | 290 | 2.0 | 2.0 | 0.00 | 0.00 | 0.00 | 15 | 1006.7 |
| 20260504003420 | 84 | 287 | 2.0 | 2.0 | 0.00 | 0.00 | 0.00 | 13 | 1006.8 |
| 20260504002420 | 84 | 258 | 1.0 | 1.0 | 0.00 | 0.00 | 0.00 | 15 | 1006.9 |
| 20260504001420 | 84 | 190 | 2.0 | 3.0 | 0.00 | 0.00 | 0.00 | 16 | 1007.1 |
| 20260504000423 | 84 | 268 | 2.0 | 3.0 | 0.00 | 0.00 | 0.00 | 16 | 1007.0 |
| 20260503235441 | 84 | 310 | 2.0 | 3.0 | 0.00 | 0.00 | 0.00 | 16 | 1007.1 |
| 20260503234421 | 84 | 285 | 0.0 | 1.0 | 0.00 | 0.00 | 0.00 | 18 | 1007.0 |
| 20260503233417 | 84 | 267 | 2.0 | 3.0 | 0.00 | 0.00 | 0.00 | 18 | 1007.1 |
| 20260503232417 | 84 | 280 | 2.0 | 4.0 | 0.00 | 0.00 | 0.00 | 18 | 1007.2 |
| 20260503231418 | 83 | 343 | 1.0 | 1.0 | 0.00 | 0.00 | 0.00 | 18 | 1007.4 |
| 20260503230417 | 83 | 284 | 0.0 | 1.0 | 0.00 | 0.00 | 0.00 | 18 | 1007.7 |
| 20260503225417 | 83 | 0 | 0.0 | 0.0 | 0.00 | 0.00 | 0.00 | 15 | 1007.9 |
| 20260503224422 | 83 | 250 | 3.0 | 6.0 | 0.00 | 0.00 | 0.00 | 13 | 1008.0 |
| 20260503223422 | 83 | 222 | 1.0 | 2.0 | 0.00 | 0.00 | 0.00 | 13 | 1008.2 |
| 20260503222418 | 83 | 268 | 1.0 | 1.0 | 0.00 | 0.00 | 0.00 | 16 | 1008.4 |
| 20260503221418 | 83 | 297 | 1.0 | 2.0 | 0.00 | 0.00 | 0.00 | 18 | 1008.5 |
| 20260503220418 | 82 | 273 | 1.0 | 2.0 | 0.00 | 0.00 | 0.00 | 19 | 1008.7 |
| 20260503215419 | 82 | 297 | 2.0 | 4.0 | 0.00 | 0.00 | 0.00 | 23 | 1009.0 |
| 20260503214418 | 81 | 224 | 2.0 | 3.0 | 0.00 | 0.00 | 0.00 | 24 | 1009.2 |
| 20260503213439 | 81 | 277 | 1.0 | 2.0 | 0.00 | 0.00 | 0.00 | 25 | 1009.3 |
| 20260503212419 | 80 | 311 | 1.0 | 2.0 | 0.00 | 0.00 | 0.00 | 25 | 1009.5 |
| 20260503211419 | 79 | 259 | 1.0 | 4.0 | 0.00 | 0.00 | 0.00 | 27 | 1009.7 |
| 20260503210419 | 79 | 269 | 1.0 | 1.0 | 0.00 | 0.00 | 0.00 | 30 | 1009.8 |
| 20260503205419 | 78 | 271 | 2.0 | 2.0 | 0.00 | 0.00 | 0.00 | 30 | 1009.9 |
| 20260503204420 | 78 | 270 | 1.0 | 1.0 | 0.00 | 0.00 | 0.00 | 34 | 1010.1 |
| 20260503203420 | 77 | 285 | 2.0 | 3.0 | 0.00 | 0.00 | 0.00 | 31 | 1010.4 |
| 20260503202421 | 77 | 252 | 2.0 | 4.0 | 0.00 | 0.00 | 0.00 | 34 | 1010.5 |
| 20260503201421 | 76 | 243 | 2.0 | 3.0 | 0.00 | 0.00 | 0.00 | 34 | 1010.6 |
| 20260503200420 | 76 | 280 | 0.0 | 1.0 | 0.00 | 0.00 | 0.00 | 35 | 1010.7 |
| 20260503195421 | 75 | 267 | 1.0 | 1.0 | 0.00 | 0.00 | 0.00 | 35 | 1010.9 |
| 20260503194421 | 74 | 278 | 1.0 | 2.0 | 0.00 | 0.00 | 0.00 | 35 | 1010.9 |
| 20260503193421 | 74 | 278 | 1.0 | 1.0 | 0.00 | 0.00 | 0.00 | 36 | 1011.2 |
| 20260503192501 | 73 | 255 | 1.0 | 2.0 | 0.00 | 0.00 | 0.00 | 40 | 1011.4 |
| 20260503191421 | 72 | 299 | 1.0 | 1.0 | 0.00 | 0.00 | 0.00 | 40 | 1011.5 |
| 20260503190422 | 72 | 309 | 0.0 | 0.0 | 0.00 | 0.00 | 0.00 | 41 | 1011.7 |
| 20260503185421 | 71 | 229 | 2.0 | 3.0 | 0.00 | 0.00 | 0.00 | 40 | 1011.8 |
| 20260503184422 | 70 | 259 | 3.0 | 4.0 | 0.00 | 0.00 | 0.00 | 41 | 1012.0 |
| 20260503183422 | 69 | 238 | 1.0 | 3.0 | 0.00 | 0.00 | 0.00 | 42 | 1012.1 |
| 20260503182422 | 69 | 244 | 1.0 | 2.0 | 0.00 | 0.00 | 0.00 | 41 | 1012.2 |
| 20260503181422 | 68 | 243 | 1.0 | 2.0 | 0.00 | 0.00 | 0.00 | 43 | 1012.3 |
| 20260503180422 | 67 | 152 | 1.0 | 2.0 | 0.00 | 0.00 | 0.00 | 43 | 1012.4 |
| 20260503175423 | 66 | 250 | 1.0 | 2.0 | 0.00 | 0.00 | 0.00 | 46 | 1012.4 |
| 20260503174423 | 65 | 268 | 1.0 | 2.0 | 0.00 | 0.00 | 0.00 | 43 | 1012.6 |
| 20260503173423 | 64 | 252 | 2.0 | 5.0 | 0.00 | 0.00 | 0.00 | 48 | 1012.7 |
| 20260503172423 | 63 | 287 | 2.0 | 4.0 | 0.00 | 0.00 | 0.00 | 54 | 1012.7 |
| 20260503171443 | 62 | 256 | 3.0 | 5.0 | 0.00 | 0.00 | 0.00 | 55 | 1012.8 |
| 20260503170423 | 61 | 244 | 3.0 | 4.0 | 0.00 | 0.00 | 0.00 | 55 | 1013.1 |
| 20260503150425 | 52 | 0.0 | 0.0 | 0.00 | 0.00 | 0.00 | 68 | 1013.7 | |
| 20260503130428 | 45 | 152 | 1.0 | 2.0 | 0.00 | 0.00 | 0.00 | 74 | 1013.4 |
| 20260503110430 | 47 | 185 | 1.0 | 1.0 | 0.00 | 0.00 | 0.00 | 74 | 1013.2 |
| 20260503090417 | 51 | 184 | 1.0 | 1.0 | 0.00 | 0.00 | 0.00 | 68 | 1012.7 |
| 20260503081432 | 54 | 66 | 2.0 | 2.0 | 0.00 | 0.00 | 0.00 | 61 | 1012.8 |
| 20260503080418 | 54 | 69 | 1.0 | 1.0 | 0.00 | 0.00 | 0.00 | 61 | 1013.0 |
| 20260503072418 | 57 | 78 | 1.0 | 2.0 | 0.00 | 0.00 | 0.00 | 58 | 1012.7 |
| 20260503071419 | 57 | 115 | 1.0 | 1.0 | 0.00 | 0.00 | 0.00 | 55 | 1012.8 |
| 20260503070418 | 58 | 98 | 0.0 | 1.0 | 0.00 | 0.00 | 0.00 | 55 | 1012.8 |
| 20260503054440 | 63 | 112 | 1.0 | 1.0 | 0.00 | 0.00 | 0.00 | 43 | 1012.2 |
| 20260503053421 | 63 | 0.0 | 0.0 | 0.00 | 0.00 | 0.00 | 46 | 1012.1 | |
| 20260503052420 | 64 | 0 | 0.0 | 0.0 | 0.00 | 0.00 | 0.00 | 46 | 1012.1 |
| 20260503051420 | 65 | 140 | 1.0 | 2.0 | 0.00 | 0.00 | 0.00 | 43 | 1012.2 |
| 20260503050421 | 66 | 181 | 1.0 | 1.0 | 0.00 | 0.00 | 0.00 | 42 | 1012.1 |
| 20260503045441 | 66 | 182 | 1.0 | 1.0 | 0.00 | 0.00 | 0.00 | 40 | 1012.0 |
| 20260503044521 | 67 | 0.0 | 0.0 | 0.00 | 0.00 | 0.00 | 37 | 1011.9 | |
| 20260503043441 | 68 | 0.0 | 0.0 | 0.00 | 0.00 | 0.00 | 36 | 1011.8 | |
| 20260503042421 | 68 | 0.0 | 0.0 | 0.00 | 0.00 | 0.00 | 35 | 1011.7 | |
| 20260503041421 | 69 | 178 | 0.0 | 1.0 | 0.00 | 0.00 | 0.00 | 34 | 1011.7 |
| 20260503040421 | 69 | 0.0 | 0.0 | 0.00 | 0.00 | 0.00 | 31 | 1011.5 | |
| 20260503035422 | 70 | 0.0 | 0.0 | 0.00 | 0.00 | 0.00 | 31 | 1011.4 | |
| 20260503034422 | 70 | 0.0 | 0.0 | 0.00 | 0.00 | 0.00 | 30 | 1011.3 | |
| 20260503033422 | 71 | 0 | 0.0 | 0.0 | 0.00 | 0.00 | 0.00 | 29 | 1011.2 |
| 20260503032422 | 71 | 0.0 | 0.0 | 0.00 | 0.00 | 0.00 | 29 | 1011.1 | |
| 20260503031423 | 72 | 0.0 | 0.0 | 0.00 | 0.00 | 0.00 | 27 | 1010.9 | |
| 20260503030423 | 73 | 286 | 1.0 | 1.0 | 0.00 | 0.00 | 0.00 | 25 | 1010.8 |
| 20260503025443 | 73 | 0 | 0.0 | 0.0 | 0.00 | 0.00 | 0.00 | 24 | 1010.8 |
| 20260503024423 | 74 | 0 | 0.0 | 0.0 | 0.00 | 0.00 | 0.00 | 24 | 1010.7 |
| 20260503023423 | 74 | 285 | 1.0 | 2.0 | 0.00 | 0.00 | 0.00 | 23 | 1010.6 |
| 20260503022444 | 75 | 284 | 0.0 | 1.0 | 0.00 | 0.00 | 0.00 | 23 | 1010.7 |
| 20260503021423 | 76 | 0.0 | 0.0 | 0.00 | 0.00 | 0.00 | 21 | 1010.6 | |
| 20260503020424 | 77 | 270 | 1.0 | 1.0 | 0.00 | 0.00 | 0.00 | 18 | 1010.6 |
| 20260503015444 | 77 | 270 | 1.0 | 2.0 | 0.00 | 0.00 | 0.00 | 16 | 1010.6 |
| 20260503014424 | 78 | 281 | 1.0 | 1.0 | 0.00 | 0.00 | 0.00 | 15 | 1010.6 |